KB3UMW-13 Weather Reports


time (UTC)temp
C
wind
direction
speed
KPH
gust
KPH
rain 1hr
cm
rain 24hr
cm
rain mn
cm
humidity
%
barometer
mb
20260502194744 8 26 1.6 8.0 0.00 0.00 0.00 62 1012.5
20260502194242 7 328 3.2 12.9 0.00 0.00 0.00 58 1012.3
20260502193737 7 4 0.0 9.7 0.00 0.00 0.00 51 1012.5
20260502193235 8 30 1.6 6.4 0.00 0.00 0.00 53 1012.7
20260502192735 8 109 1.6 11.3 0.00 0.00 0.00 55 1012.6
20260502192233 8 358 6.4 25.7 0.00 0.00 0.00 48 1012.7
20260502191729 8 2 3.2 11.3 0.00 0.00 0.00 53 1012.7
20260502191227 8 112 3.2 17.7 0.00 0.00 0.00 56 1012.7
20260502190724 9 115 1.6 11.3 0.00 0.00 0.00 47 1012.7
20260502190222 9 41 1.6 11.3 0.00 0.00 0.00 57 1012.8
20260502185721 9 147 9.7 11.3 0.00 0.00 0.00 54 1012.8
20260502185218 8 156 4.8 11.3 0.00 0.00 0.00 56 1012.8
20260502184715 10 38 8.0 9.7 0.00 0.00 0.00 51 1012.9
20260502184210 8 323 4.8 8.0 0.00 0.00 0.00 57 1013.0
20260502183707 7 43 3.2 9.7 0.00 0.00 0.00 54 1013.1
20260502183203 7 135 3.2 11.3 0.00 0.00 0.00 61 1012.9
20260502182658 8 141 1.6 14.5 0.00 0.00 0.00 67 1013.0
20260502182154 7 187 4.8 9.7 0.00 0.00 0.00 57 1013.2
20260502181652 7 129 3.2 6.4 0.00 0.00 0.00 58 1013.2
20260502181150 7 154 9.7 14.5 0.00 0.00 0.00 62 1013.1
20260502180647 7 145 6.4 8.0 0.00 0.00 0.00 63 1013.2
20260502180144 7 132 3.2 6.4 0.00 0.00 0.00 59 1013.0
20260502170109 9 44 4.8 9.7 0.00 0.00 0.00 56 1013.1
20260502164055 7 132 3.2 9.7 0.00 0.00 0.00 71 1013.4
20260502163551 7 43 3.2 14.5 0.00 0.00 0.00 64 1013.5
20260502163048 8 142 4.8 11.3 0.00 0.00 0.00 60 1013.5
20260502162545 9 141 20.9 20.9 0.00 0.00 0.00 64 1013.7
20260502162042 7 143 6.4 14.5 0.00 0.00 0.00 64 1013.7
20260502161538 7 149 8.0 12.9 0.00 0.00 0.00 62 1013.7
20260502161036 8 122 8.0 11.3 0.00 0.00 0.00 65 1013.5
20260502160534 8 132 6.4 14.5 0.00 0.00 0.00 61 1013.8
20260502151947 7 140 8.0 12.9 0.00 0.00 0.00 67 1013.8
20260502151444 7 38 0.0 12.9 0.00 0.00 0.00 71 1014.0
20260502150941 7 89 9.7 16.1 0.00 0.00 0.00 68 1013.8
20260502150438 7 130 12.9 22.5 0.00 0.00 0.00 61 1013.8
20260502130323 2 127 0.0 8.0 0.00 0.00 0.00 92 1013.4
20260502123809 2 118 4.8 6.4 0.00 0.00 0.00 94 1013.5
20260502123306 2 135 4.8 6.4 0.00 0.00 0.00 94 1013.7
20260502122802 2 97 3.2 4.8 0.00 0.00 0.00 95 1013.7
20260502122259 2 136 4.8 8.0 0.00 0.00 0.00 95 1013.7
20260502121757 1 111 3.2 8.0 0.00 0.00 0.00 95 1013.7
20260502121254 1 57 3.2 4.8 0.00 0.00 0.00 94 1013.9
20260502120751 2 157 6.4 8.0 0.00 0.00 0.00 95 1013.8
20260502120248 2 59 3.2 6.4 0.00 0.00 0.00 95 1013.9
20260502115746 2 142 4.8 4.8 0.00 0.00 0.00 95 1013.9
20260502115243 2 77 0.0 6.4 0.00 0.00 0.00 95 1013.7
20260502114738 2 170 0.0 11.3 0.00 0.00 0.00 95 1013.8
20260502114235 2 79 3.2 6.4 0.00 0.00 0.00 96 1013.9
20260502113732 1 29 4.8 6.4 0.00 0.00 0.00 95 1013.8
20260502113230 1 86 0.0 6.4 0.00 0.00 0.00 95 1014.0
20260502112728 1 34 4.8 4.8 0.00 0.00 0.00 94 1013.9
20260502112226 2 99 0.0 4.8 0.00 0.00 0.00 96 1014.0
20260502111722 1 102 3.2 3.2 0.00 0.00 0.00 95 1014.1
20260502111220 1 156 0.0 4.8 0.00 0.00 0.00 96 1014.2
20260502110717 1 89 0.0 3.2 0.00 0.00 0.00 95 1014.0
20260502110215 1 134 3.2 4.8 0.00 0.00 0.00 96 1014.0
20260502105713 1 97 0.0 3.2 0.00 0.00 0.00 95 1014.2
20260502105209 1 125 1.6 4.8 0.00 0.00 0.00 95 1013.7
20260502104706 1 78 1.6 3.2 0.00 0.00 0.00 95 1014.1
20260502104204 1 82 3.2 3.2 0.00 0.00 0.00 94 1014.0
20260502103701 1 67 0.0 4.8 0.00 0.00 0.00 95 1014.2
20260502103159 1 124 1.6 3.2 0.00 0.00 0.00 95 1014.1
20260502102655 1 76 0.0 1.6 0.00 0.00 0.00 94 1014.0
20260502102152 1 63 0.0 3.2 0.00 0.00 0.00 94 1014.1
20260502101650 1 108 1.6 3.2 0.00 0.00 0.00 94 1014.1
20260502101148 1 113 0.0 3.2 0.00 0.00 0.00 93 1014.0
20260502100647 1 135 0.0 3.2 0.00 0.00 0.00 94 1014.0
20260502100144 1 66 0.0 3.2 0.00 0.00 0.00 93 1013.8
20260502091118 1 88 1.6 3.2 0.00 0.00 0.00 94 1014.0
20260502090616 1 35 0.0 1.6 0.00 0.00 0.00 94 1014.1
20260502090113 1 32 0.0 3.2 0.00 0.00 0.00 93 1013.9
20260502071510 1 81 1.6 4.8 0.00 0.00 0.00 94 1013.8
20260502071008 1 344 0.0 4.8 0.00 0.00 0.00 94 1013.8
20260502070506 1 41 1.6 6.4 0.00 0.00 0.00 94 1013.9
20260502070004 1 4 3.2 4.8 0.00 0.00 0.00 94 1014.0
20260502065502 1 43 0.0 3.2 0.00 0.00 0.00 94 1013.7
20260502065000 2 55 0.0 3.2 0.00 0.00 0.00 95 1013.7
20260502064458 2 34 0.0 4.8 0.00 0.00 0.00 95 1013.8
20260502063954 2 140 3.2 12.9 0.00 0.00 0.00 95 1013.9
20260502063452 2 109 0.0 4.8 0.00 0.00 0.00 95 1014.1
20260502062950 2 25 0.0 4.8 0.00 0.00 0.00 95 1013.8
20260502062447 2 43 1.6 9.7 0.00 0.00 0.00 94 1014.0
20260502061945 2 13 0.0 3.2 0.00 0.00 0.00 95 1014.0
20260502061443 2 39 3.2 4.8 0.00 0.00 0.00 94 1013.9
20260502060939 2 115 3.2 4.8 0.00 0.00 0.00 94 1013.9
20260502060434 2 345 1.6 8.0 0.00 0.00 0.00 94 1014.2
20260502055931 2 103 0.0 4.8 0.00 0.00 0.00 95 1014.0
20260502055429 2 139 4.8 4.8 0.00 0.00 0.00 95 1014.2
20260502054929 2 93 0.0 3.2 0.00 0.00 0.00 95 1014.1
20260502054426 2 108 1.6 9.7 0.00 0.00 0.00 94 1014.0
20260502053923 2 172 0.0 6.4 0.00 0.00 0.00 96 1014.0
20260502053420 3 142 3.2 4.8 0.00 0.00 0.00 95 1014.0
20260502052918 3 64 0.0 4.8 0.00 0.00 0.00 95 1014.0
20260502052416 3 30 0.0 4.8 0.00 0.00 0.00 95 1014.1
20260502051913 3 145 3.2 4.8 0.00 0.00 0.00 96 1014.0
20260502051412 3 141 6.4 8.0 0.00 0.00 0.00 96 1014.1
20260502050908 3 143 1.6 8.0 0.00 0.00 0.00 96 1014.1
20260502050405 3 150 6.4 8.0 0.00 0.00 0.00 95 1014.0
20260502045902 3 130 3.2 4.8 0.00 0.00 0.00 95 1013.8
20260502045359 3 105 4.8 4.8 0.00 0.00 0.00 95 1013.8
20260502044855 3 145 4.8 11.3 0.00 0.00 0.00 95 1013.8
20260502044346 3 62 3.2 8.0 0.00 0.00 0.00 96 1013.9
20260502043843 3 119 1.6 4.8 0.00 0.00 0.00 95 1013.5
20260502043341 3 92 3.2 4.8 0.00 0.00 0.00 95 1013.5
20260502042840 3 124 3.2 3.2 0.00 0.00 0.00 95 1013.7
20260502042338 3 148 1.6 4.8 0.00 0.00 0.00 95 1013.7
20260502041835 3 131 3.2 4.8 0.00 0.00 0.00 95 1013.8
20260502041332 3 133 3.2 4.8 0.00 0.00 0.00 94 1013.7
20260502040829 3 40 0.0 4.8 0.00 0.00 0.00 94 1013.4
20260502040326 3 20 3.2 22.5 0.00 0.00 0.00 95 1013.7
20260502035822 3 58 1.6 8.0 0.00 0.18 0.18 95 1013.8
20260502035319 3 32 1.6 4.8 0.00 0.18 0.18 96 1013.5
20260502034817 3 105 3.2 4.8 0.00 0.18 0.18 95 1013.8
20260502034315 3 53 4.8 8.0 0.00 0.18 0.18 96 1013.8
20260502033813 3 18 3.2 4.8 0.00 0.18 0.18 95 1013.5
20260502033310 3 70 0.0 8.0 0.00 0.18 0.18 95 1013.9
20260502032806 4 15 0.0 9.7 0.00 0.18 0.18 95 1013.4
20260502032305 4 66 3.2 4.8 0.00 0.18 0.18 96 1013.8
20260502031800 4 122 3.2 4.8 0.00 0.18 0.18 96 1013.8
20260502031258 4 124 3.2 8.0 0.00 0.18 0.18 95 1013.5
20260502030756 5 87 1.6 4.8 0.05 0.18 0.18 97 1013.3
20260502030254 5 18 1.6 4.8 0.00 0.18 0.18 97 1013.0
20260502025751 5 150 0.0 4.8 0.00 0.18 0.18 98 1013.2
20260502025249 5 143 8.0 9.7 0.00 0.18 0.18 98 1013.3
20260502024746 5 13 1.6 6.4 0.00 0.18 0.18 98 1013.2
20260502024244 5 126 3.2 9.7 0.05 0.18 0.18 98 1013.5
20260502023742 5 73 0.0 3.2 0.05 0.18 0.18 97 1013.2
20260502023239 5 42 4.8 11.3 0.00 0.18 0.18 98 1013.3
20260502022737 5 139 4.8 8.0 0.05 0.18 0.18 97 1013.2
20260502022233 5 143 3.2 11.3 0.00 0.15 0.15 96 1013.3
20260502021730 5 106 1.6 9.7 0.00 0.15 0.15 97 1013.4
20260502021227 5 152 3.2 6.4 0.00 0.15 0.15 97 1013.1
20260502020724 5 139 3.2 8.0 0.00 0.15 0.15 97 1013.3
20260502020221 5 110 1.6 6.4 0.00 0.15 0.15 97 1013.2
20260502015720 5 105 0.0 4.8 0.05 0.15 0.15 96 1013.2
20260502015215 5 144 1.6 8.0 0.05 0.15 0.15 97 1013.3
20260502014713 5 91 4.8 8.0 0.00 0.15 0.15 96 1013.2
20260502014210 5 127 0.0 9.7 0.05 0.15 0.15 97 1013.3
20260502013706 5 125 3.2 4.8 0.05 0.15 0.15 97 1013.2
20260502013201 5 156 3.2 8.0 0.00 0.15 0.15 96 1012.8
20260502012659 5 126 3.2 9.7 0.00 0.15 0.15 96 1012.7
20260502012157 5 93 1.6 6.4 0.00 0.15 0.15 96 1012.9
20260502011653 5 113 0.0 8.0 0.00 0.15 0.15 96 1013.1
20260502011149 5 155 3.2 8.0 0.00 0.15 0.15 96 1012.9
20260502010647 5 146 3.2 6.4 0.00 0.15 0.15 96 1012.7
20260502010143 5 110 3.2 8.0 0.05 0.15 0.15 96 1012.7
20260502005641 5 138 1.6 6.4 0.00 0.13 0.13 96 1012.6
20260502005138 5 138 3.2 4.8 0.18 0.13 0.13 96 1012.4
20260502004634 5 130 4.8 8.0 0.18 0.13 0.13 95 1012.4
20260502004131 5 102 0.0 4.8 0.00 0.10 0.10 94 1012.5
20260502003629 5 75 4.8 4.8 0.05 0.10 0.10 92 1012.1
20260502003126 5 134 3.2 4.8 0.05 0.10 0.10 93 1012.0
20260502002621 5 98 3.2 9.7 0.05 0.10 0.10 91 1012.0
20260502002119 6 111 3.2 4.8 0.13 0.10 0.10 92 1011.8
20260502001617 6 15 4.8 6.4 0.23 0.08 0.08 90 1011.8
20260502001114 6 22 4.8 6.4 0.18 0.05 0.05 91 1011.8
20260502000612 6 127 6.4 8.0 0.13 0.05 0.05 89 1011.8
20260502000109 7 82 4.8 6.4 0.00 0.03 0.03 90 1011.7
20260501235605 7 138 3.2 6.4 0.05 0.03 0.03 89 1011.8
20260501235101 7 28 0.0 6.4 0.05 0.03 0.03 86 1011.5
20260501234556 7 95 1.6 4.8 0.00 0.00 0.00 86 1011.8
20260501234055 7 48 0.0 4.8 0.00 0.00 0.00 84 1011.7
20260501233553 7 10 3.2 4.8 0.00 0.00 0.00 83 1011.4
20260501233049 8 124 1.6 6.4 0.00 0.00 0.00 83 1011.4
20260501232545 8 72 1.6 9.7 0.00 0.00 0.00 81 1011.2
20260501232043 8 113 3.2 6.4 0.00 0.00 0.00 78 1011.4
20260501231540 8 50 3.2 16.1 0.00 0.00 0.00 75 1011.3
20260501231038 8 36 0.0 4.8 0.00 0.00 0.00 74 1011.1
20260501230537 8 61 0.0 6.4 0.00 0.00 0.00 72 1011.0
20260501230035 9 67 4.8 8.0 0.00 0.00 0.00 71 1011.1
20260501225532 9 97 8.0 9.7 0.00 0.00 0.00 69 1011.2
20260501225028 10 93 4.8 8.0 0.00 0.00 0.00 69 1011.1
20260501224526 10 20 4.8 8.0 0.00 0.00 0.00 66 1011.0
20260501224022 10 145 4.8 6.4 0.00 0.00 0.00 64 1011.0
20260501223519 11 32 3.2 6.4 0.00 0.00 0.00 60 1010.6
20260501223015 11 143 1.6 9.7 0.00 0.00 0.00 58 1010.6
20260501222511 11 98 0.0 4.8 0.00 0.00 0.00 57 1010.5
20260501222008 11 118 3.2 8.0 0.00 0.00 0.00 57 1010.8
20260501221505 11 138 0.0 8.0 0.00 0.00 0.00 60 1010.6
20260501221003 11 153 3.2 4.8 0.00 0.00 0.00 55 1010.7
20260501220500 12 127 0.0 4.8 0.00 0.00 0.00 53 1010.4
20260501215956 12 106 1.6 4.8 0.00 0.00 0.00 51 1010.2
20260501215453 12 116 0.0 9.7 0.00 0.00 0.00 47 1010.3
20260501214948 12 144 4.8 9.7 0.00 0.00 0.00 50 1010.3
20260501214444 12 137 4.8 14.5 0.00 0.00 0.00 48 1010.1
20260501213939 12 38 4.8 8.0 0.00 0.00 0.00 45 1010.1
20260501213437 12 337 1.6 4.8 0.00 0.00 0.00 45 1010.0
20260501212932 12 93 3.2 9.7 0.00 0.00 0.00 44 1010.2
20260501212429 13 33 0.0 8.0 0.00 0.00 0.00 46 1010.1
20260501211926 13 164 4.8 16.1 0.00 0.00 0.00 44 1009.8
20260501211424 13 144 8.0 16.1 0.00 0.00 0.00 44 1009.8
20260501210921 13 79 3.2 8.0 0.00 0.00 0.00 46 1009.8
20260501210418 13 143 6.4 9.7 0.00 0.00 0.00 50 1009.8
20260501205914 13 172 4.8 16.1 0.00 0.00 0.00 41 1009.4
20260501205411 13 149 6.4 16.1 0.00 0.00 0.00 44 1009.8
20260501204908 13 146 6.4 11.3 0.00 0.00 0.00 44 1009.5
20260501204404 13 123 4.8 16.1 0.00 0.00 0.00 47 1009.7
20260501203900 14 103 1.6 11.3 0.00 0.00 0.00 48 1009.7
20260501203358 14 351 0.0 12.9 0.00 0.00 0.00 44 1009.3
20260501202855 13 144 6.4 19.3 0.00 0.00 0.00 45 1009.7
20260501202352 14 356 6.4 11.3 0.00 0.00 0.00 46 1009.4
20260501201848 15 112 4.8 14.5 0.00 0.00 0.00 46 1010.1
20260501201345 14 122 3.2 8.0 0.00 0.00 0.00 48 1009.9
20260501200842 13 131 3.2 11.3 0.00 0.00 0.00 45 1010.0
20260501200339 15 141 8.0 11.3 0.00 0.00 0.00 44 1010.2
20260501195837 14 8 0.0 9.7 0.00 0.00 0.00 49 1010.1
20260501195332 13 137 12.9 12.9 0.00 0.00 0.00 49 1010.1